#timestamp,LO_Frequency,Hit,StdDev 
1514750415.4,286046998.4,N
1514750435.3,286047002.5,N
1514750455.1,286047001.9,N
1514750475.8,286047001.6,N
1514750495.7,286047004.7,N
1514750515.5,286047006.5,N
1514750535.3,286047007.5,N
1514750555.2,286047005.6,N
1514750575.9,286047004.0,N
1514750595.7,286047000.1,N
1514750615.6,286047005.8,N
1514750635.4,286047003.5,N
1514750655.2,286047007.3,N
1514750675.0,286047007.4,N
1514750676.0,286047007.4,N
1514750695.8,286047006.4,N
1514750715.6,286047009.2,N
1514750735.4,286047006.2,N
1514750755.3,286047006.8,N
1514750775.1,286047007.4,N
1514750795.8,286047007.4,N
1514750815.7,286047007.4,N
1514750835.5,286047011.0,N
1514750855.3,286047012.6,N
1514750875.2,286047012.8,N
1514750895.9,286047009.6,N
1514750915.7,286047010.9,N
1514750935.6,286047012.3,N
1514750955.4,286047008.3,N
1514750975.2,286047008.0,N
1514750995.0,286047007.7,N
1514750995.9,286047007.7,N
1514751015.8,286047009.5,Y
1514751035.6,286047007.4,P
1514751055.5,286047008.7,P
1514751075.3,286047006.1,P
1514751095.1,286047005.5,Y
1514751115.9,286046997.0,P
1514751135.7,286046995.1,N
1514751155.5,286046993.8,N
1514751175.3,286046992.5,N
1514751195.2,286046994.6,N
1514751215.0,286046995.5,N
1514751215.9,286046995.5,N
1514751235.7,286046991.8,N
1514751255.6,286046996.3,N
1514751275.4,286046993.4,N
1514751295.2,286046990.6,N
1514751315.1,286046985.8,Y
1514751316.0,286046985.8,P
1514751335.8,286046988.9,N
1514751355.6,286046988.0,P
1514751375.5,286046986.3,Y
1514751395.3,286046998.7,P
1514751415.1,286047000.9,N
1514751435.9,286046998.5,N
1514751455.7,286047000.7,N
1514751475.5,286047000.9,N
1514751495.4,286047001.9,N
1514751515.2,286047001.6,N
1514751535.0,286047005.4,N
1514751535.9,286047005.4,N
1514751555.8,286047001.8,N
1514751575.6,286047002.6,N
1514751595.4,286047003.5,N
1514751615.3,286046999.8,N
1514751635.1,286046998.4,N
1514751636.0,286046998.4,N
1514751655.8,286047001.1,N
1514751675.7,286046997.4,N
1514751695.5,286046995.7,N
1514751715.3,286046997.7,N
1514751735.1,286046995.1,N
1514751755.9,286047002.6,N
1514751775.7,286047000.9,N
1514751795.5,286046998.6,N
1514751815.4,286046998.8,N
1514751835.2,286046997.3,N
1514751855.0,286046995.6,N
1514751855.9,286046995.6,N
1514751875.8,286046992.5,N
1514751895.6,286046991.8,N
1514751915.4,286046995.9,N
1514751935.3,286046997.9,N
1514751955.1,286046999.2,N
1514751956.0,286046999.2,N
1514751975.8,286047001.6,N
1514751995.7,286047000.7,N
1514752015.5,286046998.9,N
1514752035.3,286046995.4,N
1514752055.2,286046995.8,N
1514752075.9,286046992.2,N
1514752095.7,286046994.6,N
1514752115.5,286046993.7,N
1514752135.4,286046995.7,N
1514752155.2,286046992.1,N
1514752175.0,286046994.4,N
1514752175.9,286046994.4,N
1514752195.8,286046996.0,N
1514752215.6,286046994.1,N
1514752235.4,286046997.6,N
1514752255.3,286046999.2,N
1514752275.1,286046997.7,N
1514752295.8,286046998.6,N
1514752315.7,286047000.7,N
1514752335.5,286046999.4,N
1514752355.3,286046999.0,N
1514752375.2,286046998.3,N
1514752395.9,286047001.9,N
1514752415.7,286047002.8,N
1514752435.6,286046998.2,N
1514752455.4,286046996.6,N
1514752475.2,286046996.0,N
1514752495.0,286046995.1,N
1514752495.9,286046995.1,N
1514752515.8,286046996.8,N
1514752535.6,286046994.5,N
1514752555.5,286046991.7,Y
1514752575.3,286046997.4,P
1514752595.1,286046995.4,P
1514752615.8,286046995.4,P
1514752635.7,286046993.5,Y
1514752655.5,286046997.2,P
1514752675.3,286046993.8,P
1514752695.2,286046994.8,P
1514752715.0,286046992.2,Y
1514752715.9,286046992.2,P
1514752735.8,286046998.1,N
1514752755.6,286046999.5,N
1514752775.4,286046999.1,N
1514752795.2,286046997.1,N
1514752815.1,286046995.4,N
1514752816.0,286046995.4,N
1514752835.8,286046995.3,N
1514752855.6,286046997.0,N
1514752875.5,286046996.6,N
1514752895.3,286046995.3,N
1514752915.1,286046996.2,N
1514752935.9,286046996.6,N
1514752955.7,286046998.5,N
1514752975.5,286047000.9,N
1514752995.4,286047005.7,N
1514753015.2,286047004.0,N
1514753035.0,286046999.7,N
1514753035.9,286046999.7,N
1514753055.8,286047001.0,N
1514753075.6,286046998.6,N
1514753095.4,286046999.4,N
1514753115.2,286046998.8,N
1514753135.1,286046999.5,N
1514753136.0,286046999.5,N
1514753155.8,286047000.9,N
1514753175.6,286047005.9,N
1514753195.5,286047000.9,N
1514753215.3,286046999.5,N
1514753235.1,286046996.8,N
1514753255.9,286047000.7,N
1514753275.7,286046998.9,N
1514753295.5,286047001.0,N
1514753315.4,286047000.9,N
1514753335.2,286046999.7,N
1514753355.0,286046999.1,N
1514753355.9,286046999.1,N
1514753375.8,286046996.5,N
1514753395.6,286046994.9,N
1514753415.4,286046996.2,N
1514753435.2,286046993.5,N
1514753455.1,286046995.2,N
1514753456.0,286046995.2,N
1514753475.8,286046997.6,N
1514753495.6,286046998.4,N
1514753515.5,286047002.8,N
1514753535.3,286047001.2,N
1514753555.1,286047002.5,N
1514753575.9,286047005.6,N
1514753595.7,286047003.5,N
1514753615.5,286047004.1,N
1514753635.4,286047003.1,N
1514753655.2,286047005.5,N
1514753675.0,286047004.1,N
1514753675.9,286047004.1,N
1514753695.8,286047003.1,N
1514753715.6,286047005.7,N
1514753735.4,286047007.9,N
1514753755.3,286047008.1,N
1514753775.1,286047007.8,N
1514753776.0,286047007.8,N
1514753795.8,286047013.6,Y
1514753815.7,286047021.2,P
1514753835.5,286047020.8,N
1514753855.3,286047022.1,N
1514753875.2,286047022.1,N
1514753895.9,286047024.9,Y
1514753915.7,286047011.6,P
1514753935.6,286047010.4,P
1514753955.4,286047006.0,N
1514753975.2,286047006.8,N
1514753995.0,286047005.8,N
1514753996.0,286047005.8,N
